Location: La Fredeussais
(48.1780°N, 1.3980°W)
Time: 08:00:41
(UTC+00:00)

Cosmos 1862 Rocket - Pass Details

Date: 09 May 2021
Orbit: 604 x 633 km, 82.5° (Epoch: 12 June)

Event Time Altitude Azimuth Distance (km) Brightness Sun altitude
Exits shadow 23:13:57 76° 100° (E) 631 3.4 -23.3°
Maximum altitude 23:13:58 76° 97° (E) 631 3.4 -23.3°
Drops below altitude 10° 23:18:18 10° 13° (NNE) 1,965 7.0 -23.5°
Sets 23:20:31 0° 11° (NNE) 2,872 8.1 -23.5°
